[[{"header":{"parameterUnit":"m.s-1","parameterCategory":1,"la1":30.2991,"la2":30.254,"lo1":-89.0895,"lo2":-89.0444,"dy":0.0017,"dx":0.0017,"nx":28,"ny":28,"refTime":"2025-06-20T21:00:00:Z","depth":0,"parameterNumber":2,"parameterNumberName":"U-component_of_WINDS"},"data":[0,0,0,0,0,0,0,0,0,0,0,0,0,0,0,0,0,0,0,0,0,0,0,0,0,0,0,0,0,0,0,0,0,0,0,0,0,0,0,0,0,0,0,0,0,0,0,0,0,0,0,0,0,0,0,0,0,0,0.1888,0.1889,0,0.1978,0.1979,0.198,0.1957,0.1955,0.1954,0.1952,0.2048,0.2052,0.2056,0,0,0,0,0,0,0,0,0,0,0,0,0,0.1698,0.1702,0.1888,0.1889,0.189,0.1978,0.1979,0.198,0.1958,0.1955,0.1953,0.1951,0.2047,0.2052,0.2057,0,0,0,0,0,0,0,0,0,0,0,0,0,0.1784,0.1703,0.1887,0.1889,0.189,0.1978,0.1979,0.1981,0.1958,0.1955,0.1953,0.195,0.2045,0.2051,0.2057,0.215,0,0,0.2077,0.208,0,0,0,0,0,0,0,0,0.1779,0.1791,0.1888,0.1889,0.189,0.1953,0.1947,0.2038,0.1959,0.1932,0.1952,0.1949,0.2019,0.2027,0.205,0.2155,0.2159,0.2077,0.2081,0.2084,0.2086,0,0,0,0,0,0,0,0.1773,0.1787,0.1923,0.1889,0.1891,0.1886,0.1895,0.1964,0.199,0.1934,0.1933,0.1944,0.2019,0.2044,0.2052,0.216,0.2077,0.2083,0.2087,0.2089,0.2344,0.2347,0,0,0,0,0,0,0.1765,0.1782,0.1921,0.1926,0.1827,0.1892,0.1902,0.1936,0.1989,0.1994,0.1946,0.1942,0.2035,0.2045,0.2056,0.2167,0.2084,0.209,0.2093,0.2341,0.2345,0.2348,0,0,0,0,0,0,0.1761,0.1778,0.1917,0.1854,0.1871,0.1898,0.1936,0.1939,0.1964,0.1997,0.2002,0.1967,0.2033,0.2047,0.2126,0.217,0.2093,0.2098,0.2338,0.2342,0.2346,0.2392,0,0,0,0,0,0,0.1756,0.1777,0.1812,0.1854,0.1874,0.1986,0.1939,0.1943,0.1975,0.1971,0.2018,0.2023,0.2032,0.2117,0.2133,0.2178,0.2103,0.2334,0.234,0.2345,0.2386,0.2397,0.2406,0,0,0,0,0,0.1749,0.1822,0.1814,0.1831,0.1919,0.1988,0.2,0.2007,0.1978,0.2014,0.2035,0.2022,0.2163,0.2125,0.2143,0.219,0.2331,0.2338,0.2345,0.2382,0.2395,0.2406,0,0,0,0,0,0,0.1785,0.1828,0.1819,0.1907,0.1944,0.1984,0.203,0.2021,0.2067,0.2062,0.207,0.2081,0.2162,0.2184,0.2142,0.2282,0.2243,0.2253,0.2265,0.2278,0.2288,0.2281,0.2109,0,0,0,0,0,0.1803,0.1855,0.189,0.1964,0.1983,0.2003,0.2034,0.2036,0.2075,0.2091,0.2118,0.2157,0.221,0.2245,0.2296,0.2389,0.2399,0.243,0.244,0.2448,0.2457,0.2508,0.2522,0.237,0.237,0.237,0,0,0.1841,0.1871,0.1904,0.1972,0.2001,0.2055,0.2017,0.2076,0.2117,0.21,0.2177,0.2198,0.2242,0.2329,0.2368,0.235,0.2501,0.2456,0.2463,0.2468,0.2516,0.253,0.2543,0.2374,0.2374,0.2373,0,0,0.1939,0.1966,0.2031,0.206,0.2104,0.2116,0.2132,0.2173,0.2186,0.2262,0.2251,0.2299,0.2391,0.2422,0.2451,0.2558,0.2548,0.2574,0.2627,0.2676,0.2688,0.2699,0.2737,0.2751,0.2583,0.2583,0.2583,0,0.1981,0.2062,0.2066,0.2126,0.2157,0.2142,0.2208,0.2237,0.2295,0.2317,0.2294,0.2408,0.2437,0.253,0.2556,0.2579,0.2597,0.257,0.2686,0.2696,0.2706,0.2743,0.2758,0.2586,0.2586,0.2586,0.2585,0,0.2112,0.2168,0.2215,0.227,0.2306,0.2369,0.2383,0.2419,0.2417,0.2432,0.251,0.2544,0.2601,0.2623,0.2623,0.2716,0.2703,0.2683,0.2644,0.2724,0.2759,0.2773,0.2591,0.2589,0.2589,0.2588,0,0,0.2237,0.2291,0.2309,0.2333,0.2379,0.2423,0.2485,0.2539,0.257,0.261,0.2663,0.2739,0.272,0.2752,0.2755,0.2798,0.2881,0.2773,0.2774,0.2792,0.2986,0.3002,0.3018,0.2873,0.2876,0.2878,0.2983,0,0.2339,0.2447,0.2451,0.2551,0.2602,0.2588,0.2642,0.2677,0.2692,0.2739,0.2756,0.281,0.2781,0.28,0.2841,0.2862,0.292,0.2854,0.2923,0.2926,0.2914,0.3036,0.3053,0.315,0.2996,0.2998,0.3,0,0.2473,0.2515,0.2619,0.2657,0.2679,0.2727,0.2776,0.2821,0.2859,0.2867,0.2902,0.2898,0.2962,0.2919,0.3008,0.2963,0.2991,0.3005,0.3009,0.3017,0.2969,0.3048,0.3181,0.3196,0.3022,0.302,0.3018,0,0.2554,0.2637,0.271,0.2731,0.2777,0.2811,0.2832,0.2867,0.2899,0.2942,0.2963,0.3014,0.3042,0.3081,0.3091,0.3059,0.3179,0.3137,0.3188,0.3188,0.3216,0.3214,0.3356,0.3232,0.3232,0.3232,0.3232,0,0.2668,0.2732,0.2747,0.2792,0.2863,0.2867,0.2938,0.2956,0.2988,0.3036,0.3027,0.3073,0.3083,0.3131,0.314,0.3211,0.3224,0.3233,0.3234,0.3234,0.3233,0.3254,0.3248,0.3236,0.3235,0.3234,0.3233,0,0.2771,0.2784,0.2862,0.2898,0.2908,0.2959,0.299,0.3033,0.3046,0.3108,0.3123,0.3144,0.32,0.3213,0.328,0.3285,0.337,0.3365,0.3357,0.3357,0.3407,0.3403,0.3568,0.359,0.3452,0.3453,0.3454,0,0.2844,0.2893,0.2933,0.2964,0.2986,0.3036,0.3068,0.3074,0.3108,0.3154,0.3192,0.3246,0.329,0.338,0.3402,0.3453,0.3449,0.3504,0.3457,0.3455,0.3451,0.3448,0.3453,0.3513,0.3514,0.3516,0.3517,0,0.2971,0.2974,0.302,0.3068,0.3106,0.3144,0.3181,0.3207,0.3217,0.3256,0.3312,0.3346,0.3413,0.3467,0.3518,0.354,0.3531,0.3531,0.3545,0.3546,0.354,0.3544,0.3382,0.3527,0.3526,0.3526,0.3525,0.3525,0.3062,0.3104,0.3139,0.319,0.3218,0.3251,0.3293,0.3311,0.3357,0.3412,0.3412,0.3474,0.351,0.3577,0.3601,0.3649,0.3633,0.3654,0.366,0.3665,0.3669,0.3531,0.3659,0.3658,0.3658,0.3658,0.3658,0,0.319,0.321,0.3257,0.3308,0.3348,0.3333,0.3372,0.3407,0.3461,0.3495,0.3537,0.3601,0.3653,0.3678,0.373,0.3764,0.3761,0.3777,0.3775,0.378,0.3681,0.3664,0.3779,0.3779,0.3779,0.3779,0.3779,0.3779,0.3261,0.3331,0.3338,0.3423,0.3443,0.3502,0.3526,0.3557,0.3584,0.3655,0.3698,0.3713,0.3744,0.3797,0.3844,0.385,0.387,0.3888,0.3892,0.38,0.3787,0.3776,0.3759,0.3893,0.3893,0.3988,0.3989,0.3989]},{"header":{"parameterUnit":"m.s-1","parameterCategory":1,"la1":30.2991,"la2":30.254,"lo1":-89.0895,"lo2":-89.0444,"dy":0.0017,"dx":0.0017,"nx":28,"ny":28,"refTime":"2025-06-20T21:00:00:Z","depth":0,"parameterNumber":3,"parameterNumberName":"V-component_of_WINDS"},"data":[0,0,0,0,0,0,0,0,0,0,0,0,0,0,0,0,0,0,0,0,0,0,0,0,0,0,0,0,0,0,0,0,0,0,0,0,0,0,0,0,0,0,0,0,0,0,0,0,0,0,0,0,0,0,0,0,0,0,1.9738,1.9738,0,1.9722,1.9722,1.9721,1.97,1.97,1.9699,1.9699,1.9679,1.9679,1.9678,0,0,0,0,0,0,0,0,0,0,0,0,0,1.9746,1.9746,1.9738,1.9738,1.9738,1.9722,1.9722,1.9721,1.97,1.97,1.9699,1.9699,1.9679,1.9679,1.9678,0,0,0,0,0,0,0,0,0,0,0,0,0,1.9738,1.9746,1.9738,1.9726,1.9724,1.9722,1.9722,1.9721,1.97,1.97,1.9699,1.9699,1.9679,1.9679,1.9678,1.9686,0,0,1.9677,1.9677,0,0,0,0,0,0,0,0,1.9738,1.9737,1.9728,1.9726,1.9725,1.9713,1.9717,1.9709,1.97,1.9709,1.9699,1.9698,1.969,1.9689,1.9687,1.9685,1.9685,1.9677,1.9677,1.9677,1.9677,0,0,0,0,0,0,0,1.9739,1.9738,1.9732,1.9728,1.9726,1.9719,1.9717,1.9715,1.9703,1.9708,1.9707,1.9705,1.9689,1.9687,1.9686,1.9684,1.9677,1.9677,1.9677,1.9677,1.9684,1.9684,0,0,0,0,0,0,1.9742,1.9739,1.9732,1.9731,1.9731,1.9719,1.9717,1.9717,1.9703,1.97,1.9706,1.9704,1.9688,1.9687,1.9685,1.9691,1.9677,1.9677,1.9677,1.9683,1.9684,1.9684,0,0,0,0,0,0,1.9742,1.9742,1.9733,1.9734,1.9733,1.9719,1.972,1.9717,1.9715,1.9701,1.9698,1.9706,1.9688,1.9686,1.9686,1.969,1.9677,1.9676,1.9683,1.9684,1.9684,1.9704,0,0,0,0,0,0,1.9742,1.9742,1.9746,1.9735,1.9733,1.9735,1.972,1.9717,1.9715,1.9713,1.97,1.9698,1.9687,1.9686,1.9685,1.969,1.9676,1.9683,1.9683,1.9684,1.9703,1.9706,1.9708,0,0,0,0,0,1.9743,1.9753,1.9747,1.9746,1.9738,1.9736,1.9734,1.9723,1.9715,1.9718,1.9708,1.9698,1.969,1.9686,1.9685,1.9689,1.9682,1.9683,1.9684,1.9702,1.9705,1.9708,0,0,0,0,0,0,1.9765,1.9751,1.9744,1.9751,1.9745,1.9732,1.9736,1.9727,1.9722,1.972,1.9704,1.9702,1.9702,1.9696,1.9692,1.9694,1.9684,1.9685,1.9699,1.9701,1.9703,1.9705,1.9676,0,0,0,0,0,1.9771,1.9771,1.9759,1.9766,1.9763,1.975,1.9748,1.974,1.9732,1.9729,1.9719,1.9711,1.9706,1.9703,1.9698,1.9702,1.9697,1.9704,1.9706,1.9708,1.9708,1.9706,1.9708,1.9687,1.9687,1.9687,0,0,1.9783,1.9775,1.9776,1.977,1.9764,1.9762,1.9748,1.9748,1.9746,1.9728,1.9727,1.972,1.9709,1.971,1.971,1.9704,1.9713,1.9709,1.9711,1.971,1.9708,1.971,1.9711,1.9688,1.9688,1.9688,0,0,1.9803,1.9799,1.9803,1.9797,1.9787,1.9778,1.9779,1.9767,1.9761,1.976,1.9746,1.9742,1.9735,1.9727,1.9722,1.9736,1.9725,1.9734,1.9746,1.9744,1.9746,1.9747,1.975,1.9751,1.9735,1.9735,1.9735,0,1.9819,1.9818,1.9806,1.9806,1.9802,1.9786,1.9788,1.9782,1.9772,1.9768,1.9763,1.9751,1.9743,1.974,1.9743,1.974,1.9739,1.9736,1.9747,1.9748,1.9749,1.9751,1.9752,1.9736,1.9736,1.9736,1.9736,0,1.9836,1.9835,1.9839,1.9829,1.9825,1.9827,1.9812,1.981,1.98,1.9791,1.9788,1.9777,1.9768,1.9767,1.9758,1.9762,1.9758,1.975,1.9739,1.9752,1.9754,1.9755,1.9738,1.9737,1.9737,1.9737,0,0,1.9871,1.9853,1.9854,1.9848,1.9835,1.9833,1.9832,1.9824,1.9821,1.9813,1.981,1.9803,1.9794,1.9788,1.9778,1.9776,1.9784,1.9768,1.9767,1.977,1.9784,1.979,1.9791,1.9777,1.9777,1.9777,1.9785,0,1.9888,1.9886,1.9874,1.9875,1.9872,1.9855,1.9854,1.9844,1.9835,1.9829,1.9818,1.9812,1.9803,1.9798,1.9796,1.9784,1.9787,1.9783,1.9772,1.9772,1.9775,1.9793,1.9799,1.9807,1.9785,1.9785,1.9786,0,1.9908,1.9901,1.9902,1.9886,1.9884,1.9884,1.9873,1.9869,1.9857,1.9849,1.9842,1.983,1.9825,1.9815,1.9806,1.9804,1.9798,1.9791,1.9791,1.9789,1.9779,1.9789,1.9809,1.981,1.9787,1.9787,1.9787,0,1.993,1.9921,1.992,1.9915,1.9898,1.9897,1.9889,1.9877,1.9872,1.9862,1.9858,1.9847,1.9841,1.9833,1.9817,1.9812,1.9809,1.9799,1.9801,1.9801,1.9801,1.9801,1.9819,1.9799,1.9799,1.9799,1.9799,0,1.995,1.995,1.9929,1.9929,1.9927,1.9912,1.9911,1.9901,1.989,1.9885,1.987,1.9865,1.9845,1.9837,1.9825,1.9818,1.9816,1.9808,1.9805,1.9809,1.981,1.9805,1.9803,1.9799,1.9799,1.9799,1.9799,0,1.9975,1.9961,1.9958,1.9941,1.9937,1.9937,1.9921,1.9918,1.9907,1.9901,1.9898,1.988,1.987,1.9853,1.9839,1.983,1.9825,1.982,1.9829,1.9827,1.9829,1.9828,1.9843,1.9843,1.9825,1.9825,1.9825,0,1.9987,1.9987,1.997,1.9966,1.9959,1.9953,1.9947,1.993,1.9925,1.9909,1.9907,1.9896,1.9886,1.987,1.9854,1.9842,1.9836,1.9841,1.9834,1.9837,1.9833,1.9833,1.9832,1.9843,1.9843,1.9844,1.9844,0,2.001,2.0003,1.9996,1.9985,1.9979,1.997,1.996,1.9957,1.9938,1.9932,1.9921,1.9914,1.9898,1.9886,1.9871,1.986,1.9848,1.9846,1.9846,1.985,1.9855,1.985,1.9833,1.9846,1.9846,1.9846,1.9846,1.9845,2.0028,2.0026,2.0013,2.0004,1.9995,1.9986,1.9981,1.9969,1.9961,1.9947,1.9937,1.9927,1.9911,1.989,1.988,1.987,1.9865,1.9865,1.9865,1.9864,1.9865,1.9857,1.9867,1.9867,1.9867,1.9867,1.9867,0,2.0048,2.0038,2.0031,2.0017,2.001,2.0,1.9987,1.9981,1.9973,1.996,1.995,1.9937,1.9924,1.9907,1.9893,1.9888,1.9882,1.9885,1.9885,1.9882,1.9872,1.9873,1.989,1.989,1.989,1.989,1.989,1.989,2.0057,2.0053,2.0043,2.0033,2.0023,2.0013,2.0007,1.9997,1.9986,1.9972,1.9962,1.9951,1.9936,1.992,1.9907,1.9902,1.9897,1.9901,1.9894,1.9885,1.9883,1.9881,1.9882,1.9901,1.9901,1.9905,1.9905,1.9905]}]]